TimeEST,TemperatureF,Dew PointF,Humidity,Sea Level PressureIn,VisibilityMPH,Wind Direction,Wind SpeedMPH,Gust SpeedMPH,PrecipitationIn,Events,Conditions,WindDirDegrees,DateUTC
12:03 AM,37.4,35.6,93,29.95,1.8,Calm,Calm,-,N/A,,Clear,0,2013-01-30 05:03:00
12:12 AM,35.6,33.8,93,29.95,0.8,Calm,Calm,-,N/A,,Clear,0,2013-01-30 05:12:00
12:53 AM,35.1,34.0,96,29.95,0.5,Calm,Calm,-,N/A,Fog,Fog,0,2013-01-30 05:53:00
1:04 AM,33.8,33.8,100,29.93,0.2,Calm,Calm,-,N/A,Fog,Fog,0,2013-01-30 06:04:00
1:53 AM,36.0,34.0,93,29.91,0.2,Calm,Calm,-,N/A,Fog,Fog,0,2013-01-30 06:53:00
2:53 AM,35.1,33.1,92,29.89,0.2,Calm,Calm,-,N/A,Fog,Fog,0,2013-01-30 07:53:00
3:16 AM,35.6,33.8,93,29.87,1.2,Calm,Calm,-,N/A,,Overcast,0,2013-01-30 08:16:00
3:23 AM,35.6,33.8,93,29.86,1.0,Calm,Calm,-,N/A,,Mist,0,2013-01-30 08:23:00
3:29 AM,33.8,33.8,100,29.86,0.8,Calm,Calm,-,N/A,,Mist,0,2013-01-30 08:29:00
3:37 AM,35.6,33.8,93,29.85,0.5,Calm,Calm,-,N/A,Fog,Fog,0,2013-01-30 08:37:00
3:50 AM,33.8,32.0,93,29.85,2.5,Calm,Calm,-,N/A,,Mostly Cloudy,0,2013-01-30 08:50:00
3:53 AM,33.1,32.0,96,29.86,2.5,Calm,Calm,-,N/A,,Overcast,0,2013-01-30 08:53:00
3:55 AM,33.8,32.0,93,29.84,1.8,Calm,Calm,-,N/A,,Overcast,0,2013-01-30 08:55:00
4:02 AM,33.8,30.2,87,29.84,1.0,Calm,Calm,-,N/A,,Mist,0,2013-01-30 09:02:00
4:04 AM,33.8,32.0,93,29.84,1.0,Calm,Calm,-,N/A,,Mist,0,2013-01-30 09:04:00
4:13 AM,33.8,33.8,100,29.84,1.5,Calm,Calm,-,N/A,,Mostly Cloudy,0,2013-01-30 09:13:00
4:21 AM,33.8,33.8,100,29.85,1.0,Calm,Calm,-,N/A,,Mist,0,2013-01-30 09:21:00
4:28 AM,33.8,33.8,100,29.84,0.5,Calm,Calm,-,N/A,Fog,Fog,0,2013-01-30 09:28:00
4:46 AM,35.6,33.8,93,29.83,1.0,Calm,Calm,-,N/A,,Mist,0,2013-01-30 09:46:00
4:53 AM,34.0,33.1,96,29.83,1.0,Calm,Calm,-,N/A,,Mist,0,2013-01-30 09:53:00
5:03 AM,35.6,35.6,100,29.82,0.8,ESE,3.5,-,N/A,,Mist,120,2013-01-30 10:03:00
5:06 AM,35.6,35.6,100,29.82,1.2,Calm,Calm,-,N/A,,Partly Cloudy,0,2013-01-30 10:06:00
5:13 AM,35.6,35.6,100,29.82,2.5,Calm,Calm,-,N/A,,Partly Cloudy,0,2013-01-30 10:13:00
5:53 AM,41.0,39.9,96,29.81,2.5,Calm,Calm,-,N/A,,Clear,0,2013-01-30 10:53:00
6:01 AM,42.8,42.8,100,29.80,3.0,Calm,Calm,-,N/A,,Clear,0,2013-01-30 11:01:00
6:53 AM,41.0,39.9,96,29.80,3.0,ENE,3.5,-,N/A,,Partly Cloudy,70,2013-01-30 11:53:00
7:00 AM,41.0,39.2,93,29.79,2.5,Calm,Calm,-,N/A,,Scattered Clouds,0,2013-01-30 12:00:00
7:09 AM,42.8,41.0,93,29.79,2.5,Calm,Calm,-,N/A,,Mostly Cloudy,0,2013-01-30 12:09:00
7:25 AM,42.8,41.0,93,29.78,1.8,Calm,Calm,-,N/A,,Overcast,0,2013-01-30 12:25:00
7:44 AM,46.4,44.6,93,29.77,2.5,Calm,Calm,-,N/A,,Overcast,0,2013-01-30 12:44:00
7:53 AM,55.9,53.1,90,29.78,6.0,Variable,5.8,-,N/A,,Overcast,0,2013-01-30 12:53:00
8:38 AM,59.0,53.6,82,29.74,10.0,South,6.9,17.3,N/A,,Scattered Clouds,180,2013-01-30 13:38:00
8:53 AM,60.1,54.0,80,29.75,10.0,South,9.2,19.6,N/A,,Mostly Cloudy,190,2013-01-30 13:53:00
9:53 AM,61.0,54.0,78,29.72,10.0,South,6.9,-,N/A,,Overcast,170,2013-01-30 14:53:00
10:53 AM,61.0,55.9,83,29.68,10.0,SSW,10.4,26.5,N/A,,Overcast,200,2013-01-30 15:53:00
11:33 AM,66.2,57.2,73,29.65,10.0,South,15.0,28.8,N/A,,Overcast,190,2013-01-30 16:33:00
11:40 AM,66.2,57.2,73,29.64,10.0,SSW,20.7,35.7,N/A,,Overcast,200,2013-01-30 16:40:00
11:53 AM,66.0,57.0,73,29.63,10.0,South,13.8,29.9,N/A,,Mostly Cloudy,190,2013-01-30 16:53:00
12:53 PM,66.0,57.0,73,29.59,10.0,South,15.0,33.4,N/A,,Mostly Cloudy,190,2013-01-30 17:53:00
1:11 PM,66.2,57.2,73,29.57,10.0,South,12.7,26.5,0.00,,Overcast,190,2013-01-30 18:11:00
1:53 PM,66.9,57.0,70,29.55,10.0,South,15.0,29.9,0.00,,Overcast,180,2013-01-30 18:53:00
2:43 PM,64.4,57.2,77,29.60,1.5,WNW,24.2,35.7,0.00,Rain,Light Rain,300,2013-01-30 19:43:00
2:47 PM,59.0,55.4,88,29.60,0.8,WNW,15.0,35.7,0.00,Rain,Heavy Rain,300,2013-01-30 19:47:00
2:53 PM,57.9,55.0,90,29.62,1.0,West,10.4,23.0,N/A,Rain,Heavy Rain,280,2013-01-30 19:53:00
2:58 PM,57.2,55.4,94,29.60,2.0,West,8.1,-,N/A,Rain,Rain,280,2013-01-30 19:58:00
3:03 PM,57.2,55.4,94,29.60,3.0,WNW,6.9,-,N/A,Rain,Rain,290,2013-01-30 20:03:00
3:53 PM,57.9,55.0,90,29.62,6.0,Calm,Calm,-,N/A,Rain,Light Rain,0,2013-01-30 20:53:00
4:53 PM,57.0,54.0,89,29.59,6.0,SSE,5.8,-,N/A,Rain,Light Rain,150,2013-01-30 21:53:00
5:09 PM,55.4,55.4,100,29.58,2.0,SSE,4.6,-,N/A,Rain,Heavy Rain,160,2013-01-30 22:09:00
5:16 PM,55.4,53.6,94,29.56,3.0,SE,6.9,-,N/A,Rain,Light Rain,140,2013-01-30 22:16:00
5:53 PM,55.9,54.0,93,29.59,4.0,South,5.8,-,N/A,Rain,Light Rain,180,2013-01-30 22:53:00
6:03 PM,55.4,53.6,94,29.56,2.0,SSE,5.8,-,N/A,Rain,Heavy Rain,160,2013-01-30 23:03:00
6:08 PM,55.4,53.6,94,29.56,3.0,SSE,6.9,-,N/A,Rain,Rain,160,2013-01-30 23:08:00
6:53 PM,55.0,53.1,93,29.54,4.0,SE,6.9,-,N/A,Rain,Rain,140,2013-01-30 23:53:00
7:53 PM,55.0,53.1,93,29.51,4.0,SE,4.6,-,N/A,Rain,Rain,140,2013-01-31 00:53:00
8:53 PM,54.0,52.0,93,29.44,8.0,ESE,6.9,-,N/A,Rain,Light Rain,110,2013-01-31 01:53:00
9:53 PM,54.0,52.0,93,29.38,10.0,ESE,8.1,-,N/A,Rain,Light Rain,120,2013-01-31 02:53:00
10:53 PM,54.0,52.0,93,29.34,4.0,Calm,Calm,-,N/A,Rain,Rain,0,2013-01-31 03:53:00
11:02 PM,53.6,51.8,94,29.34,4.0,SE,5.8,-,N/A,Rain,Rain,130,2013-01-31 04:02:00
11:53 PM,54.0,53.1,97,29.25,5.0,SSE,10.4,-,N/A,Rain,Rain,150,2013-01-31 04:53:00